Regional Weather Roundup
Issued by NWS Sterling, VA

Home | Current Version | Previous Version | Graphics & Text | Print | Product List | Glossary On
Versions: 1 2 3 4 5 6 7 8 9 10 11 12 13 14 15 16 17 18 19 20 21 22 23 24 25 26 27 28 29 30 31 32 33 34 35 36 37 38 39 40 41 42 43 44 45 46 47 48 49 50
000
ASUS41 KLWX 270610
RWRLWX

REGIONAL WEATHER ROUNDUP
NATIONAL WEATHER SERVICE BALTIMORE MD/WASHINGTON DC
100 AM EST MON FEB 27 2017

Note: "FAIR" indicates few or no clouds below 12,000 feet
with no significant weather and/or obstructions to visibility.
 TC=TEMPERATURE CELSIUS

 * =Non NWS site. Station does not report precipitation (e.g. rain,
    snow, etc.), thunder, or fog.

DCZ001-MDZ009-015-VAZ040>042-051-053>054-270700-
WASHINGTON METRO

CITY           SKY/WX    TMP DP  RH WIND       PRES   REMARKS
WASHINGTON NAT PTCLDY    39  26  59 S8        30.33S
DULLES         PTCLDY    27  20  75 CALM      30.31R
ANDREWS AFB    CLEAR     34  21  60 S3        30.31S
FT BELVOIR     CLEAR     28  22  78 CALM      30.33R
QUANTICO       CLEAR     33  29  85 NW6       30.35R
COLLEGE PARK*  CLEAR     28  23  80 CALM      30.33R
LEESBURG*      PTCLDY    32  25  74 MISG      30.32R
MANASSAS*      PTCLDY    24  22  91 CALM      30.33R
GAITHERSBURG*  CLEAR     27  19  74 CALM      30.35R

$$

MDZ006>007-011-014-270700-
BALTIMORE METRO

CITY           SKY/WX    TMP DP  RH WIND       PRES   REMARKS
BWI AIRPORT    PTCLDY    30  23  75 CALM      30.32R
MD SCIENCE CTR   N/A     37  22  54 MISG      30.32R
MARTIN STATE   CLEAR     32  28  86 CALM      30.35R
ANNAPOLIS      CLEAR     36  30  79 CALM      30.33R
FORT MEADE*    CLEAR     27  23  86 CALM      30.35R

$$

MDZ012-015-019>023-270700-
MARYLAND EASTERN SHORE

CITY           SKY/WX    TMP DP  RH WIND       PRES   REMARKS
OCEAN CITY     CLEAR     29  25  85 CALM      30.36R
SALISBURY      CLEAR     29  24  82 CALM      30.35R
BAY BRIDGE AP* CLEAR     36  28  75 S5        30.33S
CAMBRIDGE*     CLEAR     30  27  86 SE3       30.34S
EASTON*        CLEAR     32  24  71 CALM      30.37S

$$

MDZ017>025-270700-
SOUTHERN MARYLAND

CITY           SKY/WX    TMP DP  RH WIND       PRES   REMARKS
PATUXENT RIVER CLEAR     31  30  96 CALM      30.33S
ST INIGOES     CLEAR     32  28  85 NE3       30.33R
LEONARDTOWN*   CLEAR     32  28  86 CALM      30.35R

$$

MDZ003>005-270700-
NORTH CENTRAL MARYLAND

CITY           SKY/WX    TMP DP  RH WIND       PRES   REMARKS
FREDERICK*     CLEAR     27  27 100 CALM      30.34R
HAGERSTOWN APT CLEAR     33  17  51 S6        30.28R
WESTMINSTER*   CLEAR     30  21  69 SE3       30.28R

$$

MDZ501>502-270700-
WESTERN MARYLAND

CITY           SKY/WX    TMP DP  RH WIND       PRES   REMARKS
OAKLAND*       CLEAR     28   9  43 SW8       30.18S WCI  20
CUMBERLAND*    CLEAR     28  19  69 CALM      30.31F

$$

VAZ025>031-270700-
SHENANDOAH VALLEY

CITY           SKY/WX    TMP DP  RH WIND       PRES   REMARKS
WINCHESTER*    CLEAR     27  18  69 S5        30.28S
FRONT ROYAL*   CLEAR     30  19  64 CALM      30.28S
LURAY*         CLEAR     27  23  86 CALM      30.29S
NEW MARKET*    CLEAR     24  17  74 CALM      30.28S
STAUNTON*      CLEAR     25  17  70 CALM      30.30S
WAYNESBORO*    PTCLDY    28  13  52 CALM      30.27S

$$

WVZ021-048>050-054>055-270700-
EASTERN WEST VIRGINIA PANHANDLE

CITY           SKY/WX    TMP DP  RH WIND       PRES   REMARKS
MARTINSBURG    CLEAR     26  16  65 SW3       30.28R
PETERSBURG*    CLEAR     26  21  81 CALM      30.29S

$$

VAZ036>039-050-270700-
CENTRAL FOOTHILLS

CITY           SKY/WX    TMP DP  RH WIND       PRES   REMARKS
CHARLOTTESVILL CLEAR     35  15  44 CALM      30.29F
CULPEPER*      CLEAR     26  22  85 N3        30.33R
ORANGE*        CLEAR     28  23  80 CALM      30.32F
GORDONSVILLE*  CLEAR     28  24  82 CALM      30.30F
WARRENTON*     CLEAR     25  20  83 CALM      30.31S

$$

VAZ055>057-270700-
NORTH AND CENTRAL PIEDMONT

CITY           SKY/WX    TMP DP  RH WIND       PRES   REMARKS
FREDERICKSBRG* CLEAR     32  25  75 CALM      30.33R
STAFFORD*      CLEAR     26  25  94 CALM      30.37R

$$

NCZ024-NYZ072-PAZ021-071-VAZ022-071-270700-
OTHER REGIONAL OBSERVATIONS

CITY           SKY/WX    TMP DP  RH WIND       PRES   REMARKS
NEW YORK CITY  CLEAR     35  16  45 VRB3      30.31R
PHILADELPHIA   CLEAR     33  19  56 CALM      30.32R
PITTSBURGH     PTCLDY    32  15  49 S6        30.20R
ROANOKE        CLEAR     32  18  56 NW5       30.31R
RICHMOND       CLEAR     32  27  81 SE3       30.33R
RALEIGH        CLEAR     36  26  67 CALM      30.33S

$$

ANZ530>537-270700-
MARINE OBSERVATIONS

STATION/POSITION TIME  TEMP    WIND        PRES
                       AIR SEA DIR/SP/G
                 (UTC) (F)     (DEG/KT/KT) (MB)
THOMAS PT LIGHT  0600   43 44  180/  7/  8   N/A
BALT KEY BRIDGE  0542   38     190/  6/  7 1026.8R
COVE POINT       0542   41     190/  3/  4 1027.8R
LEWISETTA        0542   42 48  160/  3/  4 1026.7R
SOLOMONS ISLAND  0542   41 45  150/  3/  3   N/A
PINEY POINT      0548          150/  7/  8   N/A

$$




USA.gov is the U.S. government's official web portal to all federal, state and local government web resources and services.